Weather History for Ladysmith, WI

Change the Weather History Date:

Tuesday, April 30, 2013

  Actual Average (KRPD) Record (KRPD)
Temperature  
Mean Temperature 66 °F -  
Max Temperature 78 °F 61 °F 75 °F (1999)
Min Temperature 53 °F 39 °F 26 °F (2005)
Growing Degree Days 16 (Base 50)    
Moisture  
Dew Point 47 °F    
Average Humidity 58    
Maximum Humidity 94    
Minimum Humidity 26    
Precipitation  
Precipitation 0.00 in - - ()
Sea Level Pressure  
Sea Level Pressure 29.67 in    
Wind  
Wind Speed 9 mph (SSW)    
Max Wind Speed 22 mph    
Max Gust Speed 36 mph    
Visibility 10 miles    
Events      
Averages and records for this station are not official NWS values.
T = Trace of Precipitation, MM = Missing Value Source: NWS Daily Summary

Daily Weather History Graph

Daily Weather History Graph

Search for Another Location

Airport:

Trip Planner

Search our weather history database for the weather conditions in past years. The results will help you decide how hot, cold, wet, or windy it might be!

Date:

Astronomy

Apr. 30, 2013 Rise Set
Actual Time 5:53 AM CDT 8:09 PM CDT
Civil Twilight 5:20 AM CDT 8:42 PM CDT
Nautical Twilight 4:40 AM CDT 9:23 PM CDT
Astronomical Twilight 3:54 AM CDT 10:09 PM CDT
Moon 12:36 AM CDT (4/30) 10:19 AM CDT (4/30)
Length of Visible Light 15h 21m
Length of Day
14h 16m
Waning Gibbous, 70% of the Moon is Illuminated
Apr 30
Waning Gibbous
May 2
Last Quarter
May 9
New
May 17
First Quarter
May 24
Full

Hourly Weather History & Observations

Time (CDT) Temp. Dew Point Humidity Pressure Visibility Wind Dir Wind Speed Gust Speed Precip Events Conditions
12:15 AM 59.0 °F 50.0 °F 72% 29.67 in 10.0 mi SE 5.8 mph - N/A   Clear
12:35 AM 57.2 °F 50.0 °F 77% 29.66 in 10.0 mi ESE 5.8 mph - N/A   Clear
12:55 AM 55.4 °F 50.0 °F 82% 29.66 in 10.0 mi ESE 5.8 mph - N/A   Clear
1:15 AM 55.4 °F 50.0 °F 82% 29.65 in 10.0 mi ESE 6.9 mph - N/A   Clear
1:35 AM 55.4 °F 50.0 °F 82% 29.64 in 10.0 mi ESE 5.8 mph - N/A   Clear
1:55 AM 55.4 °F 50.0 °F 82% 29.63 in 10.0 mi East 5.8 mph - N/A   Clear
2:15 AM 55.4 °F 50.0 °F 82% 29.62 in 10.0 mi East 6.9 mph - N/A   Clear
2:35 AM 53.6 °F 50.0 °F 88% 29.61 in 10.0 mi ESE 6.9 mph - N/A   Clear
2:55 AM 53.6 °F 50.0 °F 88% 29.61 in 10.0 mi East 5.8 mph - N/A   Clear
3:15 AM 53.6 °F 50.0 °F 88% 29.60 in 10.0 mi East 6.9 mph - N/A   Clear
3:35 AM 53.6 °F 50.0 °F 88% 29.59 in 10.0 mi East 8.1 mph - N/A   Clear
3:55 AM 53.6 °F 50.0 °F 88% 29.60 in 10.0 mi ESE 5.8 mph - N/A   Clear
4:15 AM 53.6 °F 50.0 °F 88% 29.59 in 10.0 mi ESE 8.1 mph - N/A   Clear
4:35 AM 53.6 °F 50.0 °F 88% 29.58 in 10.0 mi ESE 6.9 mph - N/A   Clear
4:55 AM 53.6 °F 51.8 °F 94% 29.59 in 10.0 mi ESE 6.9 mph - N/A   Clear
5:15 AM 53.6 °F 51.8 °F 94% 29.59 in 10.0 mi SE 6.9 mph - N/A   Clear
5:35 AM 55.4 °F 51.8 °F 88% 29.58 in 10.0 mi SE 6.9 mph - N/A   Clear
5:55 AM 57.2 °F 53.6 °F 88% 29.57 in 10.0 mi SE 10.4 mph - N/A   Clear
6:15 AM 57.2 °F 53.6 °F 88% 29.57 in 10.0 mi SE 5.8 mph - N/A   Clear
6:35 AM 59.0 °F 53.6 °F 82% 29.56 in 10.0 mi SE 8.1 mph - N/A   Clear
6:55 AM 59.0 °F 53.6 °F 82% 29.56 in 10.0 mi SSE 10.4 mph - N/A   Clear
7:15 AM 59.0 °F 53.6 °F 82% 29.56 in 10.0 mi SSE 8.1 mph - N/A   Scattered Clouds
7:35 AM 60.8 °F 55.4 °F 82% 29.56 in 10.0 mi SSE 10.4 mph - N/A   Clear
7:55 AM 60.8 °F 55.4 °F 82% 29.55 in 10.0 mi SSE 10.4 mph - N/A   Scattered Clouds
8:15 AM 62.6 °F 55.4 °F 77% 29.54 in 10.0 mi SSE 10.4 mph 17.3 mph N/A   Scattered Clouds
8:35 AM 64.4 °F 55.4 °F 73% 29.54 in 10.0 mi SSE 9.2 mph 18.4 mph N/A   Mostly Cloudy
8:55 AM 66.2 °F 55.4 °F 68% 29.53 in 10.0 mi South 15.0 mph 20.7 mph N/A   Scattered Clouds
9:15 AM 66.2 °F 55.4 °F 68% 29.55 in 10.0 mi South 13.8 mph 21.9 mph N/A   Mostly Cloudy
9:35 AM 68.0 °F 55.4 °F 64% 29.53 in 10.0 mi South 15.0 mph 21.9 mph N/A   Scattered Clouds
9:55 AM 69.8 °F 57.2 °F 64% 29.52 in 10.0 mi South 20.7 mph 25.3 mph N/A   Clear
10:15 AM 71.6 °F 55.4 °F 57% 29.52 in 10.0 mi South 17.3 mph 35.7 mph N/A   Clear
10:35 AM 73.4 °F 57.2 °F 57% 29.53 in 10.0 mi SSW 21.9 mph 27.6 mph N/A   Clear
10:55 AM 73.4 °F 57.2 °F 57% 29.53 in 10.0 mi SSW 19.6 mph 27.6 mph N/A   Clear
11:15 AM 73.4 °F 55.4 °F 53% 29.54 in 10.0 mi SSW 18.4 mph 29.9 mph N/A   Scattered Clouds
11:35 AM 75.2 °F 55.4 °F 50% 29.55 in 10.0 mi SSW 19.6 mph 25.3 mph N/A   Scattered Clouds
11:55 AM 77.0 °F 55.4 °F 47% 29.56 in 10.0 mi SW 18.4 mph 25.3 mph N/A   Scattered Clouds
12:15 PM 77.0 °F 55.4 °F 47% 29.56 in 10.0 mi SW 15.0 mph 23.0 mph N/A   Clear
12:35 PM 78.8 °F 53.6 °F 42% 29.56 in 10.0 mi SW 16.1 mph 23.0 mph N/A   Scattered Clouds
12:55 PM 78.8 °F 53.6 °F 42% 29.58 in 10.0 mi SSW 15.0 mph 24.2 mph N/A   Scattered Clouds
1:15 PM 77.0 °F 51.8 °F 41% 29.58 in 10.0 mi SW 18.4 mph 23.0 mph N/A   Scattered Clouds
1:35 PM 77.0 °F 51.8 °F 41% 29.60 in 10.0 mi WSW 15.0 mph 24.2 mph N/A   Clear
1:55 PM 77.0 °F 46.4 °F 34% 29.62 in 10.0 mi WSW 17.3 mph 24.2 mph N/A   Clear
2:15 PM 78.8 °F 50.0 °F 36% 29.63 in 10.0 mi WSW 12.7 mph 17.3 mph N/A   Clear
2:35 PM 78.8 °F 46.4 °F 32% 29.63 in 10.0 mi WSW 12.7 mph 20.7 mph N/A   Clear
2:55 PM 78.8 °F 44.6 °F 30% 29.65 in 10.0 mi West 12.7 mph 20.7 mph N/A   Clear
3:15 PM 77.0 °F 46.4 °F 34% 29.66 in 10.0 mi WSW 11.5 mph 19.6 mph N/A   Scattered Clouds
3:35 PM 77.0 °F 44.6 °F 32% 29.66 in 10.0 mi West 11.5 mph 18.4 mph N/A   Clear
3:55 PM 77.0 °F 44.6 °F 32% 29.68 in 10.0 mi West 13.8 mph - N/A   Clear
4:15 PM 73.4 °F 44.6 °F 36% 29.70 in 10.0 mi West 17.3 mph 24.2 mph N/A   Clear
4:35 PM 71.6 °F 44.6 °F 38% 29.72 in 10.0 mi West 19.6 mph 23.0 mph N/A   Clear
4:55 PM 71.6 °F 42.8 °F 35% 29.72 in 10.0 mi WSW 17.3 mph 21.9 mph N/A   Clear
5:15 PM 71.6 °F 35.6 °F 27% 29.73 in 10.0 mi West 17.3 mph 21.9 mph N/A   Clear
5:35 PM 69.8 °F 35.6 °F 28% 29.73 in 10.0 mi West 13.8 mph - N/A   Clear
5:55 PM 69.8 °F 37.4 °F 31% 29.76 in 10.0 mi West 10.4 mph - N/A   Clear
6:15 PM 69.8 °F 37.4 °F 31% 29.79 in 10.0 mi West 13.8 mph 18.4 mph N/A   Clear
6:35 PM 68.0 °F 32.0 °F 26% 29.81 in 10.0 mi West 10.4 mph 13.8 mph N/A   Scattered Clouds
6:55 PM 64.4 °F 35.6 °F 34% 29.82 in 10.0 mi West 12.7 mph - N/A   Clear
7:15 PM 64.4 °F 37.4 °F 37% 29.81 in 10.0 mi West 13.8 mph - N/A   Clear
7:35 PM 64.4 °F 35.6 °F 34% 29.81 in 10.0 mi West 9.2 mph 16.1 mph N/A   Clear
7:55 PM 62.6 °F 37.4 °F 39% 29.81 in 10.0 mi West 10.4 mph - N/A   Clear
8:15 PM 62.6 °F 37.4 °F 39% 29.81 in 10.0 mi WNW 11.5 mph 16.1 mph N/A   Clear
8:35 PM 62.6 °F 39.2 °F 42% 29.83 in 10.0 mi WNW 8.1 mph - N/A   Clear
8:55 PM 60.8 °F 37.4 °F 42% 29.85 in 10.0 mi West 4.6 mph - N/A   Clear
9:15 PM 59.0 °F 39.2 °F 48% 29.85 in 10.0 mi West 4.6 mph - N/A   Clear
9:35 PM 57.2 °F 39.2 °F 51% 29.85 in 10.0 mi West 3.5 mph - N/A   Clear
9:55 PM 57.2 °F 41.0 °F 55% 29.86 in 10.0 mi Calm Calm - N/A   Scattered Clouds
10:15 PM 57.2 °F 41.0 °F 55% 29.88 in 10.0 mi West 6.9 mph - N/A   Mostly Cloudy
10:35 PM 59.0 °F 41.0 °F 51% 29.90 in 10.0 mi West 5.8 mph - N/A   Overcast
10:55 PM 57.2 °F 39.2 °F 51% 29.90 in 10.0 mi West 6.9 mph - N/A   Overcast
11:15 PM 57.2 °F 35.6 °F 44% 29.90 in 10.0 mi West 4.6 mph - N/A   Overcast
11:35 PM 59.0 °F 32.0 °F 36% 29.91 in 10.0 mi West 5.8 mph - N/A   Overcast
11:55 PM 57.2 °F 32.0 °F 38% 29.93 in 10.0 mi West 8.1 mph - N/A   Overcast